• In Deutschland
  • Länderverzeichnis
  • Für 7 Tage
  • Wassertemperatur
  • Satellitenkarten
  • Wetterkarte
  • Widgets
  • user-avatar
    Anmelden

    Stündliche Wetter Rustawi

    Heute, 16 August, Donnerstag

    Zeit Temperatur Niederschläge Wind Luftdruck Luftfeuchtigkeit
    00:00 +20°C° 0 mm 2 m/S 727 mmHg 64%
    01:00 +21°C° 0 mm 1 m/S 727 mmHg 64%
    02:00 +21°C° 0 mm 1 m/S 727 mmHg 65%
    03:00 +21°C° 0 mm 1 m/S 726 mmHg 67%
    04:00 +21°C° 0 mm 1 m/S 726 mmHg 67%
    05:00 +21°C° 0 mm 1 m/S 726 mmHg 67%
    06:00 +21°C° 0 mm 1 m/S 726 mmHg 67%
    07:00 +23°C° 0 mm 1 m/S 726 mmHg 62%
    08:00 +25°C° 0 mm 1 m/S 726 mmHg 58%
    09:00 +27°C° 0 mm 1 m/S 726 mmHg 52%
    10:00 +28°C° 0 mm 2 m/S 726 mmHg 49%
    11:00 +29°C° 0 mm 3 m/S 725 mmHg 46%
    12:00 +31°C° 0 mm 3 m/S 725 mmHg 43%
    13:00 +31°C° 0 mm 3 m/S 725 mmHg 42%
    14:00 +33°C° 0 mm 3 m/S 725 mmHg 40%
    15:00 +33°C° 0 mm 3 m/S 725 mmHg 41%
    16:00 +31°C° 0 mm 3 m/S 725 mmHg 43%
    17:00 +31°C° 0 mm 3 m/S 725 mmHg 46%
    18:00 +30°C° 0 mm 2 m/S 725 mmHg 48%
    19:00 +28°C° 0,1 mm 2 m/S 725 mmHg 53%
    20:00 +26°C° 0,1 mm 1 m/S 725 mmHg 58%
    21:00 +24°C° 0,1 mm 1 m/S 725 mmHg 64%
    22:00 +24°C° 0,3 mm 1 m/S 725 mmHg 65%
    23:00 +24°C° 0,3 mm 1 m/S 725 mmHg 66%

    Morgen, 17 August, Freitag

    Zeit Temperatur Niederschläge Wind Luftdruck Luftfeuchtigkeit
    00:00 +23°C° 0,3 mm 2 m/S 725 mmHg 66%
    01:00 +23°C° 0,1 mm 2 m/S 725 mmHg 67%
    02:00 +22°C° 0,1 mm 1 m/S 725 mmHg 68%
    03:00 +22°C° 0,1 mm 1 m/S 725 mmHg 69%
    04:00 +22°C° 0 mm 1 m/S 725 mmHg 69%
    05:00 +22°C° 0 mm 1 m/S 725 mmHg 69%
    06:00 +22°C° 0 mm 1 m/S 725 mmHg 69%
    07:00 +25°C° 0 mm 1 m/S 725 mmHg 62%
    08:00 +27°C° 0 mm 1 m/S 724 mmHg 55%
    09:00 +29°C° 0 mm 1 m/S 724 mmHg 47%
    10:00 +31°C° 0 mm 1 m/S 724 mmHg 44%
    11:00 +32°C° 0 mm 2 m/S 723 mmHg 40%
    12:00 +34°C° 0 mm 2 m/S 723 mmHg 37%
    13:00 +35°C° 0 mm 2 m/S 723 mmHg 35%
    14:00 +36°C° 0 mm 3 m/S 722 mmHg 33%
    15:00 +37°C° 0 mm 3 m/S 722 mmHg 31%
    16:00 +36°C° 0 mm 3 m/S 722 mmHg 33%
    17:00 +35°C° 0 mm 3 m/S 722 mmHg 35%
    18:00 +34°C° 0 mm 2 m/S 722 mmHg 37%
    19:00 +31°C° 0 mm 2 m/S 722 mmHg 42%
    20:00 +29°C° 0 mm 1 m/S 722 mmHg 46%
    21:00 +27°C° 0 mm 1 m/S 723 mmHg 51%
    22:00 +26°C° 0 mm 1 m/S 723 mmHg 53%
    23:00 +25°C° 0 mm 2 m/S 723 mmHg 56%

    übermorgen, 18 August, Samstag

    Zeit Temperatur Niederschläge Wind Luftdruck Luftfeuchtigkeit
    00:00 +25°C° 0 mm 2 m/S 723 mmHg 58%
    01:00 +24°C° 0,1 mm 2 m/S 723 mmHg 60%
    02:00 +24°C° 0,1 mm 2 m/S 723 mmHg 62%
    03:00 +23°C° 0,1 mm 2 m/S 722 mmHg 64%
    04:00 +23°C° 0 mm 1 m/S 722 mmHg 64%
    05:00 +23°C° 0 mm 1 m/S 722 mmHg 65%
    06:00 +23°C° 0 mm 1 m/S 722 mmHg 65%
    07:00 +25°C° 0 mm 1 m/S 722 mmHg 57%
    08:00 +28°C° 0 mm 1 m/S 722 mmHg 50%
    09:00 +30°C° 0 mm 1 m/S 722 mmHg 42%
    10:00 +31°C° 0 mm 2 m/S 722 mmHg 39%
    11:00 +34°C° 0 mm 2 m/S 721 mmHg 35%
    12:00 +35°C° 0 mm 2 m/S 721 mmHg 32%
    13:00 +35°C° 0 mm 3 m/S 721 mmHg 31%
    14:00 +36°C° 0 mm 3 m/S 721 mmHg 29%
    15:00 +37°C° 0 mm 3 m/S 720 mmHg 28%
    16:00 +36°C° 0 mm 3 m/S 721 mmHg 30%
    17:00 +35°C° 0 mm 3 m/S 721 mmHg 32%
    18:00 +34°C° 0 mm 3 m/S 721 mmHg 35%
    19:00 +31°C° 0,1 mm 2 m/S 721 mmHg 39%
    20:00 +29°C° 0,1 mm 2 m/S 722 mmHg 43%
    21:00 +27°C° 0,1 mm 1 m/S 722 mmHg 47%
    22:00 +26°C° 0,3 mm 2 m/S 722 mmHg 51%
    23:00 +26°C° 0,3 mm 2 m/S 722 mmHg 54%

    19 August, Sonntag

    Zeit Temperatur Niederschläge Wind Luftdruck Luftfeuchtigkeit
    00:00 +25°C° 0,3 mm 2 m/S 722 mmHg 58%
    01:00 +24°C° 0,5 mm 2 m/S 722 mmHg 60%
    02:00 +24°C° 0,5 mm 2 m/S 722 mmHg 63%
    03:00 +23°C° 0,5 mm 2 m/S 722 mmHg 66%
    04:00 +23°C° 0,4 mm 2 m/S 722 mmHg 67%
    05:00 +23°C° 0,4 mm 2 m/S 722 mmHg 68%
    06:00 +23°C° 0,4 mm 2 m/S 722 mmHg 69%
    07:00 +24°C° 0,7 mm 2 m/S 722 mmHg 64%
    08:00 +26°C° 0,7 mm 2 m/S 722 mmHg 59%
    09:00 +27°C° 0,7 mm 2 m/S 722 mmHg 54%
    10:00 +28°C° 0,5 mm 2 m/S 722 mmHg 52%
    11:00 +29°C° 0,5 mm 2 m/S 722 mmHg 50%
    12:00 +30°C° 0,5 mm 3 m/S 722 mmHg 47%
    13:00 +31°C° 0 mm 3 m/S 722 mmHg 45%
    14:00 +31°C° 0 mm 3 m/S 721 mmHg 42%
    15:00 +33°C° 0 mm 3 m/S 721 mmHg 40%
    16:00 +31°C° 0,1 mm 3 m/S 721 mmHg 43%
    17:00 +30°C° 0,1 mm 3 m/S 722 mmHg 46%
    18:00 +30°C° 0,1 mm 3 m/S 722 mmHg 48%
    19:00 +28°C° 0,4 mm 3 m/S 722 mmHg 54%
    20:00 +26°C° 0,4 mm 3 m/S 723 mmHg 59%
    21:00 +25°C° 0,4 mm 3 m/S 723 mmHg 65%
    22:00 +24°C° 0,5 mm 3 m/S 723 mmHg 67%
    23:00 +24°C° 0,5 mm 2 m/S 723 mmHg 69%

    20 August, Montag

    Zeit Temperatur Niederschläge Wind Luftdruck Luftfeuchtigkeit
    00:00 +23°C° 0,5 mm 2 m/S 724 mmHg 71%
    01:00 +21°C° 0,2 mm 2 m/S 724 mmHg 72%
    02:00 +21°C° 0,2 mm 2 m/S 724 mmHg 74%
    03:00 +20°C° 0,2 mm 2 m/S 724 mmHg 75%
    04:00 +20°C° 0,1 mm 2 m/S 724 mmHg 75%
    05:00 +21°C° 0,1 mm 1 m/S 724 mmHg 75%
    06:00 +21°C° 0,1 mm 1 m/S 724 mmHg 75%
    07:00 +22°C° 0,2 mm 1 m/S 724 mmHg 70%
    08:00 +23°C° 0,2 mm 2 m/S 724 mmHg 66%
    09:00 +24°C° 0,2 mm 2 m/S 724 mmHg 61%
    10:00 +25°C° 0 mm 2 m/S 724 mmHg 58%
    11:00 +26°C° 0 mm 3 m/S 724 mmHg 54%
    12:00 +27°C° 0 mm 3 m/S 724 mmHg 50%
    13:00 +28°C° 0 mm 3 m/S 724 mmHg 48%
    14:00 +29°C° 0 mm 3 m/S 724 mmHg 46%
    15:00 +29°C° 0 mm 3 m/S 723 mmHg 44%
    16:00 +29°C° 0 mm 3 m/S 724 mmHg 45%
    17:00 +29°C° 0 mm 2 m/S 724 mmHg 47%
    18:00 +28°C° 0 mm 2 m/S 724 mmHg 48%
    19:00 +27°C° 0 mm 2 m/S 725 mmHg 53%
    20:00 +25°C° 0 mm 2 m/S 725 mmHg 57%
    21:00 +23°C° 0 mm 1 m/S 726 mmHg 62%
    22:00 +23°C° 0,1 mm 1 m/S 726 mmHg 63%
    23:00 +21°C° 0,1 mm 2 m/S 726 mmHg 65%

    21 August, Dienstag

    Zeit Temperatur Niederschläge Wind Luftdruck Luftfeuchtigkeit
    00:00 +21°C° 0,1 mm 2 m/S 726 mmHg 66%
    01:00 +20°C° 0,1 mm 2 m/S 726 mmHg 68%
    02:00 +20°C° 0,1 mm 1 m/S 726 mmHg 70%
    03:00 +20°C° 0,1 mm 1 m/S 726 mmHg 72%
    04:00 +20°C° 0,1 mm 1 m/S 726 mmHg 72%
    05:00 +20°C° 0,1 mm 1 m/S 726 mmHg 71%
    06:00 +20°C° 0,1 mm 1 m/S 726 mmHg 71%
    07:00 +22°C° 0 mm 1 m/S 726 mmHg 64%
    08:00 +24°C° 0 mm 1 m/S 726 mmHg 57%
    09:00 +26°C° 0 mm 1 m/S 726 mmHg 50%
    10:00 +27°C° 0 mm 2 m/S 726 mmHg 46%
    11:00 +28°C° 0 mm 2 m/S 726 mmHg 42%
    12:00 +30°C° 0 mm 3 m/S 726 mmHg 38%
    13:00 +30°C° 0 mm 3 m/S 725 mmHg 37%
    14:00 +31°C° 0 mm 3 m/S 725 mmHg 35%
    15:00 +33°C° 0 mm 3 m/S 725 mmHg 34%
    16:00 +31°C° 0 mm 3 m/S 725 mmHg 36%
    17:00 +30°C° 0 mm 3 m/S 726 mmHg 38%
    18:00 +29°C° 0 mm 3 m/S 726 mmHg 41%
    19:00 +27°C° 0 mm 2 m/S 726 mmHg 45%
    20:00 +25°C° 0 mm 2 m/S 727 mmHg 50%
    21:00 +23°C° 0 mm 1 m/S 727 mmHg 54%
    22:00 +23°C° 0 mm 1 m/S 727 mmHg 55%
    23:00 +21°C° 0 mm 2 m/S 727 mmHg 57%
    Mehr zeigen